Lid_Strength_Index
3 4 4 4 4 4 4 5 6 8 7 5 4 5 5 7 7 8 8 7 6 6 6 6 6 5 6 5 5 5 4 4 4 4 4 4 3 4
5 5 5 5 5 5 5 5 6 6 8 5 4 5 6 7 8 8 9 8 7 6 6 7 7 7 6 6 6 6 6 6 5 5 5 5 4 4
6 6 6 6 6 7 7 7 7 7 8 6 5 6 6 7 8 9 9 8 8 7 7 7 7 8 8 7 7 7 6 6 6 5 5 5 5 4
6 7 7 7 7 8 8 8 8 8 8 9 8 7 8 8 9 10 10 10 10 10 9 8 8 8 8 8 9 8 8 8 7 7 6 6 6 6
7 7 7 8 8 8 9 9 9 10 9 10 10 8 8 9 9 10 10 10 11 12 10 9 8 8 8 8 9 9 10 9 9 8 9 9 8 8
8 8 8 8 9 9 10 10 11 11 11 11 11 10 10 10 11 12 12 12 12 13 12 11 10 9 10 10 10 10 10 9 9 10 10 10 10 10
9 9 9 9 10 10 11 11 12 13 13 13 13 12 12 12 12 12 13 13 12 12 12 12 11 12 12 13 12 11 10 9 10 10 10 10 10 10
10 10 10 10 10 10 9 10 11 13 14 14 14 14 13 13 13 13 13 14 14 13 13 13 12 12 13 12 10 10 9 10 10 11 12 12 11 11
9 9 10 10 10 10 9 8 9 10 11 14 15 14 14 13 13 14 14 14 14 14 14 14 13 13 13 13 10 9 10 10 11 11 11 11 12 12
8 9 9 9 10 10 11 11 11 11 10 10 11 12 13 14 14 14 14 14 14 14 14 14 14 14 13 12 11 9 11 11 11 11 11 11 12 12
9 9 10 10 10 9 11 11 12 12 11 11 11 12 11 11 13 14 15 16 16 16 15 14 14 14 14 14 11 10 11 11 12 12 11 11 12 12
10 10 9 9 9 9 9 11 12 11 12 13 12 11 10 10 11 13 14 15 16 16 15 16 16 16 15 15 14 13 12 12 12 13 13 13 13 13
10 10 10 9 8 8 8 9 10 10 11 12 12 11 11 11 11 12 13 14 15 15 15 15 17 17 17 16 16 15 15 13 13 13 14 13 13 14
10 9 9 9 9 8 8 7 8 8 11 11 12 11 12 12 12 13 13 14 14 15 14 16 16 16 17 17 16 15 14 14 14 14 14 14 14 14
9 9 8 8 8 8 7 7 6 7 10 11 11 11 11 11 12 13 13 14 14 14 14 15 16 17 16 16 16 15 15 14 14 15 15 15 16 16
10 9 9 8 7 7 7 7 7 7 9 9 10 10 11 12 12 12 13 14 15 15 15 14 15 15 15 15 15 15 15 16 14 15 15 15 15 15
8 9 9 9 9 9 9 9 8 8 8 9 10 11 11 12 13 13 14 14 15 16 16 15 14 14 14 13 15 15 15 16 15 15 16 16 16 15
8 8 9 9 9 9 9 9 10 9 9 9 10 10 11 12 12 13 14 15 15 15 15 15 15 14 14 14 13 15 15 16 15 15 15 17 16 15
7 8 9 9 9 9 9 9 10 10 9 10 10 10 11 11 12 13 14 14 15 14 14 14 14 15 16 16 14 12 15 15 15 16 16 16 16 15
8 9 9 8 8 8 9 9 10 10 10 10 10 10 11 11 12 13 14 14 14 14 14 14 14 15 16 16 16 14 13 15 16 16 16 15 14 13
9 9 9 8 8 8 9 9 9 10 10 10 10 10 11 11 12 12 13 13 13 14 15 15 14 12 14 15 17 16 15 14 14 15 15 15 16 15
8 9 9 9 9 9 8 8 9 9 9 9 10 10 10 11 11 12 13 13 13 14 14 14 14 14 15 16 16 17 16 15 14 13 12 13 15 16
8 9 9 9 9 8 8 8 9 9 9 9 9 9 9 10 11 11 12 12 12 14 14 15 15 15 15 16 16 17 17 16 15 15 13 13 12 11